Tucson, Arizona, United States (85701)
Lat: 32.22N, Lon: 110.93W
Wx Zone: AZZ504
Local Info
Past Weather Observations for Friday, April 18, 2014

NOTE: This archive is for the closest National Weather Service station to Tucson. Information may differ from the station used for current weather conditions.

Time Weather Temperature Dewpoint Humidity Pressure Winds Precip Visibility
23:58
Mostly Cloudy
64°F / 18°C 46°F / 8°C 52% 29.95 in
(1014 mb)
E 4.6 mph
(E 7 kph)
- 10SM
22:58
Clear
64°F / 18°C 46°F / 8°C 52% 29.95 in
(1014 mb)
E 15 mph
(E 24 kph)
- 10SM
21:58
Clear
66°F / 19°C 46°F / 8°C 49% 29.95 in
(1014 mb)
E 12.7 mph
(E 20 kph)
- 10SM
20:58
Clear
68°F / 20°C 45°F / 7°C 43% 29.95 in
(1014 mb)
E 11.5 mph
(E 19 kph)
- 10SM
19:58
Partly Cloudy
70°F / 21°C 43°F / 6°C 38% 29.95 in
(1014 mb)
ESE 11.5 mph
(ESE 19 kph)
- 10SM
18:58
Mostly Cloudy
72°F / 22°C 41°F / 5°C 33% 29.92 in
(1013 mb)
ENE 9.2 mph
(ENE 15 kph)
- 10SM
17:58
Partly Cloudy
73°F / 23°C 41°F / 5°C 31% 29.92 in
(1013 mb)
E 13.8 mph
(E 22 kph)
- 10SM
16:58
Clear
70°F / 21°C 46°F / 8°C 43% 29.95 in
(1014 mb)
E 16.1 mph
(E 26 kph)
0.00 in
(0.00 mm)
10SM
16:35
Clear
70°F / 21°C 43°F / 6°C 38% 29.95 in
(1014 mb)
E 15 mph
(E 24 kph)
- 10SM
16:05
Clear
72°F / 22°C 43°F / 6°C 36% 29.98 in
(1015 mb)
SSE 19.6 mph
(SSE 32 kph)
- 9SM
15:58
Partly Cloudy
Drizzle
73°F / 23°C 39°F / 4°C 29% 29.98 in
(1015 mb)
S 26.5 mph
(S 43 kph)
- 10SM
15:57
Partly Cloudy
Drizzle
73°F / 23°C 39°F / 4°C 29% 29.98 in
(1015 mb)
S 24.2 mph
(S 39 kph)
- 10SM
14:58
Partly Cloudy
73°F / 23°C 39°F / 4°C 29% 29.98 in
(1015 mb)
ENE 8.1 mph
(ENE 13 kph)
- 10SM
13:58
Clear
73°F / 23°C 39°F / 4°C 29% 30.01 in
(1016 mb)
E 4.6 mph
(E 7 kph)
0.00 in
(0.00 mm)
10SM
13:06
Clear
72°F / 22°C 39°F / 4°C 31% 30.01 in
(1016 mb)
SE 5.8 mph
(SE 9 kph)
- 8SM
12:58
Partly Cloudy
Light Rain
75°F / 24°C 39°F / 4°C 27% 30.04 in
(1017 mb)
SSE 20.7 mph
(SSE 33 kph)
0.00 in
(0.00 mm)
8SM
12:56
Partly Cloudy
Light Rain
75°F / 24°C 39°F / 4°C 27% 30.04 in
(1017 mb)
SSE 24.2 mph
(SSE 39 kph)
- 10SM
12:54
Partly Cloudy
Light Rain
75°F / 24°C 37°F / 3°C 25% 30.04 in
(1017 mb)
S 12.7 mph
(S 20 kph)
- 10SM
11:58
Partly Cloudy
75°F / 24°C 34°F / 1°C 22% 30.01 in
(1016 mb)
NNE 1.2 mph
(NNE 2 kph)
- 10SM
10:58
Clear
75°F / 24°C 37°F / 3°C 25% 30.01 in
(1016 mb)
Calm - 10SM
09:58
Partly Cloudy
73°F / 23°C 39°F / 4°C 29% 30.01 in
(1016 mb)
S 3.5 mph
(S 6 kph)
- 10SM
08:58
Clear
72°F / 22°C 43°F / 6°C 36% 30.01 in
(1016 mb)
SE 3.5 mph
(SE 6 kph)
- 10SM
07:58
Clear
70°F / 21°C 39°F / 4°C 33% 30.01 in
(1016 mb)
E 3.5 mph
(E 6 kph)
- 10SM
06:58
Clear
66°F / 19°C 39°F / 4°C 37% 29.98 in
(1015 mb)
SE 8.1 mph
(SE 13 kph)
- 10SM
05:58
Partly Cloudy
64°F / 18°C 39°F / 4°C 40% 29.95 in
(1014 mb)
S 6.9 mph
(S 11 kph)
- 10SM
04:58
Clear
66°F / 19°C 37°F / 3°C 35% 29.92 in
(1013 mb)
SE 5.8 mph
(SE 9 kph)
- 10SM
03:58
Clear
64°F / 18°C 32°F / 0°C 30% 29.92 in
(1013 mb)
SE 5.8 mph
(SE 9 kph)
- 10SM
02:58
Clear
66°F / 19°C 28°F / -2°C 24% 29.92 in
(1013 mb)
SSE 1.2 mph
(SSE 2 kph)
- 10SM
01:58
Clear
66°F / 19°C 30°F / -1°C 26% 29.92 in
(1013 mb)
SSE 5.8 mph
(SSE 9 kph)
- 10SM
00:58
Clear
68°F / 20°C 30°F / -1°C 24% 29.95 in
(1014 mb)
S 3.5 mph
(S 6 kph)
- 10SM
Time Weather Temperature Dewpoint Humidity Pressure Winds Precip Visibility


Weather for websites

WeatherForYou.com, LLC is not responsible for any damages or problems caused by this service. Current weather conditions are obtained from the closest station including government and personal stations which may have varying degrees of accuracy. Weather forecasts are derived from the NOAA NDFD. Like all things, this site belongs to Jesus Christ... He just trusts me to maintain it. If you have any questions or comments email webmaster@weatherforyou.com

Copyright © 2014, WeatherForYou.com LLC. All rights reserved.